owner,sensor,date,latitude,longitude,vertical_datum,sea_water_practical_salinity,qcFlag 
SCCF RECON,ioos:station:SCCF:18:1,2013-10-01T00:00:00Z,26.6955,-81.8138,1.688,0.16,1111122 
SCCF RECON,ioos:station:SCCF:18:1,2013-10-01T01:00:00Z,26.6955,-81.8138,1.67,0.16,1111122 
SCCF RECON,ioos:station:SCCF:18:1,2013-10-01T02:00:00Z,26.6955,-81.8138,1.67,0.16,1111122 
SCCF RECON,ioos:station:SCCF:18:1,2013-10-01T03:00:00Z,26.6955,-81.8138,1.72,0.16,1111122 
SCCF RECON,ioos:station:SCCF:18:1,2013-10-01T04:00:00Z,26.6955,-81.8138,1.79,0.16,1111122 
SCCF RECON,ioos:station:SCCF:18:1,2013-10-01T05:00:00Z,26.6955,-81.8138,1.85,0.16,1111122 
SCCF RECON,ioos:station:SCCF:18:1,2013-10-01T06:00:00Z,26.6955,-81.8138,1.89,0.16,1111122 
SCCF RECON,ioos:station:SCCF:18:1,2013-10-01T07:00:00Z,26.6955,-81.8138,1.89,0.16,1111122 
SCCF RECON,ioos:station:SCCF:18:1,2013-10-01T08:00:00Z,26.6955,-81.8138,1.86,0.16,1111122 
SCCF RECON,ioos:station:SCCF:18:1,2013-10-01T09:00:00Z,26.6955,-81.8138,1.82,0.16,1111122 
SCCF RECON,ioos:station:SCCF:18:1,2013-10-01T10:00:00Z,26.6955,-81.8138,1.78,0.16,1111122 
SCCF RECON,ioos:station:SCCF:18:1,2013-10-01T11:00:00Z,26.6955,-81.8138,1.74,0.16,1111122 
SCCF RECON,ioos:station:SCCF:18:1,2013-10-01T12:00:00Z,26.6955,-81.8138,1.71,0.16,1111122 
SCCF RECON,ioos:station:SCCF:18:1,2013-10-01T13:00:00Z,26.6955,-81.8138,1.68,0.16,1111122 
SCCF RECON,ioos:station:SCCF:18:1,2013-10-01T14:00:00Z,26.6955,-81.8138,1.719,0.16,1111122 
SCCF RECON,ioos:station:SCCF:18:1,2013-10-01T15:00:00Z,26.6955,-81.8138,1.79,0.16,1111122 
SCCF RECON,ioos:station:SCCF:18:1,2013-10-01T16:00:00Z,26.6955,-81.8138,1.85,0.16,1111122 
SCCF RECON,ioos:station:SCCF:18:1,2013-10-01T17:00:00Z,26.6955,-81.8138,1.9,0.16,1111122 
SCCF RECON,ioos:station:SCCF:18:1,2013-10-01T18:00:00Z,26.6955,-81.8138,1.93,0.16,1111122 
SCCF RECON,ioos:station:SCCF:18:1,2013-10-01T19:00:00Z,26.6955,-81.8138,1.94,0.16,1111122 
SCCF RECON,ioos:station:SCCF:18:1,2013-10-01T20:00:00Z,26.6955,-81.8138,1.9,0.16,1111122 
SCCF RECON,ioos:station:SCCF:18:1,2013-10-01T21:00:00Z,26.6955,-81.8138,1.825,0.16,1111122 
SCCF RECON,ioos:station:SCCF:18:1,2013-10-01T22:00:00Z,26.6955,-81.8138,1.77,0.16,1111122 
SCCF RECON,ioos:station:SCCF:18:1,2013-10-01T23:00:00Z,26.6955,-81.8138,1.73,0.16,1111122 
SCCF RECON,ioos:station:SCCF:18:1,2013-10-02T00:00:00Z,26.6955,-81.8138,1.69,0.16,1111122 
SCCF RECON,ioos:station:SCCF:18:1,2013-10-02T01:00:00Z,26.6955,-81.8138,1.66,0.16,1111122 
SCCF RECON,ioos:station:SCCF:18:1,2013-10-02T02:00:00Z,26.6955,-81.8138,1.64,0.16,1111122 
SCCF RECON,ioos:station:SCCF:18:1,2013-10-02T03:00:00Z,26.6955,-81.8138,1.66,0.17,1111122 
SCCF RECON,ioos:station:SCCF:18:1,2013-10-02T04:00:00Z,26.6955,-81.8138,1.73,0.17,1111122 
SCCF RECON,ioos:station:SCCF:18:1,2013-10-02T05:00:00Z,26.6955,-81.8138,1.79,0.17,1111122 
SCCF RECON,ioos:station:SCCF:18:1,2013-10-02T06:00:00Z,26.6955,-81.8138,1.83,0.17,1111122 
SCCF RECON,ioos:station:SCCF:18:1,2013-10-02T07:00:00Z,26.6955,-81.8138,1.85,0.17,1111122 
SCCF RECON,ioos:station:SCCF:18:1,2013-10-02T08:00:00Z,26.6955,-81.8138,1.81,0.17,1111122 
SCCF RECON,ioos:station:SCCF:18:1,2013-10-02T09:00:00Z,26.6955,-81.8138,1.77,0.17,1111122 
SCCF RECON,ioos:station:SCCF:18:1,2013-10-02T10:00:00Z,26.6955,-81.8138,1.72,0.17,1111122 
SCCF RECON,ioos:station:SCCF:18:1,2013-10-02T11:00:00Z,26.6955,-81.8138,1.679,0.17,1111122 
SCCF RECON,ioos:station:SCCF:18:1,2013-10-02T12:00:00Z,26.6955,-81.8138,1.64,0.17,1111122 
SCCF RECON,ioos:station:SCCF:18:1,2013-10-02T13:00:00Z,26.6955,-81.8138,1.6,0.17,1111122 
SCCF RECON,ioos:station:SCCF:18:1,2013-10-02T14:00:00Z,26.6955,-81.8138,1.58,0.17,1111122 
SCCF RECON,ioos:station:SCCF:18:1,2013-10-02T16:00:00Z,26.6955,-81.8138,1.045,0.17,1111122 
SCCF RECON,ioos:station:SCCF:18:1,2013-10-02T17:00:00Z,26.6955,-81.8138,1.74,0.17,1111122 
SCCF RECON,ioos:station:SCCF:18:1,2013-10-02T18:00:00Z,26.6955,-81.8138,1.84,0.17,1111122 
SCCF RECON,ioos:station:SCCF:18:1,2013-10-02T19:00:00Z,26.6955,-81.8138,1.885,0.17,1111122 
SCCF RECON,ioos:station:SCCF:18:1,2013-10-02T20:00:00Z,26.6955,-81.8138,1.88,0.17,1111122 
SCCF RECON,ioos:station:SCCF:18:1,2013-10-02T21:00:00Z,26.6955,-81.8138,1.84,0.17,1111122 
SCCF RECON,ioos:station:SCCF:18:1,2013-10-02T22:00:00Z,26.6955,-81.8138,1.79,0.17,1111122 
SCCF RECON,ioos:station:SCCF:18:1,2013-10-02T23:00:00Z,26.6955,-81.8138,1.76,0.16,1111122 
SCCF RECON,ioos:station:SCCF:18:1,2013-10-03T00:00:00Z,26.6955,-81.8138,1.734,0.16,1111122 
SCCF RECON,ioos:station:SCCF:18:1,2013-10-03T01:00:00Z,26.6955,-81.8138,1.72,0.16,1111122 
SCCF RECON,ioos:station:SCCF:18:1,2013-10-03T02:00:00Z,26.6955,-81.8138,1.7,0.16,1111122 
SCCF RECON,ioos:station:SCCF:18:1,2013-10-03T03:00:00Z,26.6955,-81.8138,1.704,0.16,1111122 
SCCF RECON,ioos:station:SCCF:18:1,2013-10-03T04:00:00Z,26.6955,-81.8138,1.771,0.16,1111122 
SCCF RECON,ioos:station:SCCF:18:1,2013-10-03T05:00:00Z,26.6955,-81.8138,1.86,0.16,1111122 
SCCF RECON,ioos:station:SCCF:18:1,2013-10-03T06:00:00Z,26.6955,-81.8138,1.92,0.16,1111122 
SCCF RECON,ioos:station:SCCF:18:1,2013-10-03T07:00:00Z,26.6955,-81.8138,1.96,0.16,1111122 
SCCF RECON,ioos:station:SCCF:18:1,2013-10-03T08:00:00Z,26.6955,-81.8138,1.972,0.16,1111122 
SCCF RECON,ioos:station:SCCF:18:1,2013-10-03T09:00:00Z,26.6955,-81.8138,1.94,0.16,1111122 
SCCF RECON,ioos:station:SCCF:18:1,2013-10-03T10:00:00Z,26.6955,-81.8138,1.89,0.16,1111122 
SCCF RECON,ioos:station:SCCF:18:1,2013-10-03T11:00:00Z,26.6955,-81.8138,1.84,0.16,1111122 
SCCF RECON,ioos:station:SCCF:18:1,2013-10-03T12:00:00Z,26.6955,-81.8138,1.8,0.16,1111122 
SCCF RECON,ioos:station:SCCF:18:1,2013-10-03T13:00:00Z,26.6955,-81.8138,1.77,0.16,1111122 
SCCF RECON,ioos:station:SCCF:18:1,2013-10-03T14:00:00Z,26.6955,-81.8138,1.74,0.16,1111122 
SCCF RECON,ioos:station:SCCF:18:1,2013-10-03T15:00:00Z,26.6955,-81.8138,1.72,0.16,1111122 
SCCF RECON,ioos:station:SCCF:18:1,2013-10-03T16:00:00Z,26.6955,-81.8138,1.78,0.16,1111122 
SCCF RECON,ioos:station:SCCF:18:1,2013-10-03T17:00:00Z,26.6955,-81.8138,1.86,0.16,1111122 
SCCF RECON,ioos:station:SCCF:18:1,2013-10-03T18:00:00Z,26.6955,-81.8138,1.93,0.16,1111122 
SCCF RECON,ioos:station:SCCF:18:1,2013-10-03T19:00:00Z,26.6955,-81.8138,1.97,0.16,1111122 
SCCF RECON,ioos:station:SCCF:18:1,2013-10-03T20:00:00Z,26.6955,-81.8138,2.02,0.17,1111122 
SCCF RECON,ioos:station:SCCF:18:1,2013-10-03T21:00:00Z,26.6955,-81.8138,2.05,0.16,1111122 
SCCF RECON,ioos:station:SCCF:18:1,2013-10-03T22:00:00Z,26.6955,-81.8138,2.015,0.16,1111122 
SCCF RECON,ioos:station:SCCF:18:1,2013-10-03T23:00:00Z,26.6955,-81.8138,1.96,0.16,1111122 
SCCF RECON,ioos:station:SCCF:18:1,2013-10-04T00:00:00Z,26.6955,-81.8138,1.89,0.16,1111122 
SCCF RECON,ioos:station:SCCF:18:1,2013-10-04T01:00:00Z,26.6955,-81.8138,1.84,0.16,1111122 
SCCF RECON,ioos:station:SCCF:18:1,2013-10-04T02:00:00Z,26.6955,-81.8138,1.81,0.16,1111122 
SCCF RECON,ioos:station:SCCF:18:1,2013-10-04T03:00:00Z,26.6955,-81.8138,1.78,0.16,1111122 
SCCF RECON,ioos:station:SCCF:18:1,2013-10-04T04:00:00Z,26.6955,-81.8138,1.82,0.16,1111122 
SCCF RECON,ioos:station:SCCF:18:1,2013-10-04T05:00:00Z,26.6955,-81.8138,1.9,0.16,1111122 
SCCF RECON,ioos:station:SCCF:18:1,2013-10-04T06:00:00Z,26.6955,-81.8138,1.97,0.16,1111122 
SCCF RECON,ioos:station:SCCF:18:1,2013-10-04T07:00:00Z,26.6955,-81.8138,2.02,0.16,1111122 
SCCF RECON,ioos:station:SCCF:18:1,2013-10-04T08:00:00Z,26.6955,-81.8138,2.05,0.17,1111122 
SCCF RECON,ioos:station:SCCF:18:1,2013-10-04T09:00:00Z,26.6955,-81.8138,2.03,0.16,1111122 
SCCF RECON,ioos:station:SCCF:18:1,2013-10-04T10:00:00Z,26.6955,-81.8138,1.97,0.16,1111122 
SCCF RECON,ioos:station:SCCF:18:1,2013-10-04T11:00:00Z,26.6955,-81.8138,1.91,0.16,1111122 
SCCF RECON,ioos:station:SCCF:18:1,2013-10-04T12:00:00Z,26.6955,-81.8138,1.86,0.16,1111122 
SCCF RECON,ioos:station:SCCF:18:1,2013-10-04T13:00:00Z,26.6955,-81.8138,1.82,0.16,1111122 
SCCF RECON,ioos:station:SCCF:18:1,2013-10-04T14:00:00Z,26.6955,-81.8138,1.78,0.16,1111122 
SCCF RECON,ioos:station:SCCF:18:1,2013-10-04T15:00:00Z,26.6955,-81.8138,1.74,0.16,1111122 
SCCF RECON,ioos:station:SCCF:18:1,2013-10-04T16:00:00Z,26.6955,-81.8138,1.74,0.16,1111122 
SCCF RECON,ioos:station:SCCF:18:1,2013-10-04T17:00:00Z,26.6955,-81.8138,1.82,0.16,1111122 
SCCF RECON,ioos:station:SCCF:18:1,2013-10-04T18:00:00Z,26.6955,-81.8138,1.9,0.16,1111122 
SCCF RECON,ioos:station:SCCF:18:1,2013-10-04T19:00:00Z,26.6955,-81.8138,1.95,0.16,1111122 
SCCF RECON,ioos:station:SCCF:18:1,2013-10-04T20:00:00Z,26.6955,-81.8138,2.0,0.16,1111122 
SCCF RECON,ioos:station:SCCF:18:1,2013-10-04T21:00:00Z,26.6955,-81.8138,2.02,0.16,1111122 
SCCF RECON,ioos:station:SCCF:18:1,2013-10-04T22:00:00Z,26.6955,-81.8138,1.99,0.16,1111122 
SCCF RECON,ioos:station:SCCF:18:1,2013-10-04T23:00:00Z,26.6955,-81.8138,1.92,0.16,1111122 
SCCF RECON,ioos:station:SCCF:18:1,2013-10-05T00:00:00Z,26.6955,-81.8138,1.87,0.16,1111122 
SCCF RECON,ioos:station:SCCF:18:1,2013-10-05T01:00:00Z,26.6955,-81.8138,1.83,0.16,1111122 
SCCF RECON,ioos:station:SCCF:18:1,2013-10-05T02:00:00Z,26.6955,-81.8138,1.79,0.16,1111122 
SCCF RECON,ioos:station:SCCF:18:1,2013-10-05T03:00:00Z,26.6955,-81.8138,1.76,0.16,1111122 
SCCF RECON,ioos:station:SCCF:18:1,2013-10-05T04:00:00Z,26.6955,-81.8138,1.76,0.16,1111122 
SCCF RECON,ioos:station:SCCF:18:1,2013-10-05T05:00:00Z,26.6955,-81.8138,1.846,0.16,1111122 
SCCF RECON,ioos:station:SCCF:18:1,2013-10-05T06:00:00Z,26.6955,-81.8138,1.92,0.15,1111122 
SCCF RECON,ioos:station:SCCF:18:1,2013-10-05T07:00:00Z,26.6955,-81.8138,1.99,0.16,1111122 
SCCF RECON,ioos:station:SCCF:18:1,2013-10-05T08:00:00Z,26.6955,-81.8138,2.03,0.16,1111122 
SCCF RECON,ioos:station:SCCF:18:1,2013-10-05T09:00:00Z,26.6955,-81.8138,2.04,0.16,1111122 
SCCF RECON,ioos:station:SCCF:18:1,2013-10-05T10:00:00Z,26.6955,-81.8138,1.98,0.16,1111122 
SCCF RECON,ioos:station:SCCF:18:1,2013-10-05T11:00:00Z,26.6955,-81.8138,1.929,0.16,1111122 
SCCF RECON,ioos:station:SCCF:18:1,2013-10-05T12:00:00Z,26.6955,-81.8138,1.87,0.16,1111122 
SCCF RECON,ioos:station:SCCF:18:1,2013-10-05T13:00:00Z,26.6955,-81.8138,1.82,0.16,1111122 
SCCF RECON,ioos:station:SCCF:18:1,2013-10-05T14:00:00Z,26.6955,-81.8138,1.78,0.16,1111122 
SCCF RECON,ioos:station:SCCF:18:1,2013-10-05T15:00:00Z,26.6955,-81.8138,1.73,0.16,1111122 
SCCF RECON,ioos:station:SCCF:18:1,2013-10-05T16:00:00Z,26.6955,-81.8138,1.7,0.16,1111122 
SCCF RECON,ioos:station:SCCF:18:1,2013-10-05T17:00:00Z,26.6955,-81.8138,1.71,0.16,1111122 
SCCF RECON,ioos:station:SCCF:18:1,2013-10-05T18:00:00Z,26.6955,-81.8138,1.79,0.16,1111122 
SCCF RECON,ioos:station:SCCF:18:1,2013-10-05T19:00:00Z,26.6955,-81.8138,1.85,0.16,1111122 
SCCF RECON,ioos:station:SCCF:18:1,2013-10-05T20:00:00Z,26.6955,-81.8138,1.9,0.16,1111122 
SCCF RECON,ioos:station:SCCF:18:1,2013-10-05T21:00:00Z,26.6955,-81.8138,1.95,0.16,1111122 
SCCF RECON,ioos:station:SCCF:18:1,2013-10-05T22:00:00Z,26.6955,-81.8138,1.95,0.16,1111122 
SCCF RECON,ioos:station:SCCF:18:1,2013-10-05T23:00:00Z,26.6955,-81.8138,1.91,0.16,1111122 
SCCF RECON,ioos:station:SCCF:18:1,2013-10-06T00:00:00Z,26.6955,-81.8138,1.84,0.16,1111122 
SCCF RECON,ioos:station:SCCF:18:1,2013-10-06T01:00:00Z,26.6955,-81.8138,1.8,0.16,1111122 
SCCF RECON,ioos:station:SCCF:18:1,2013-10-06T02:00:00Z,26.6955,-81.8138,1.764,0.16,1111122 
SCCF RECON,ioos:station:SCCF:18:1,2013-10-06T03:00:00Z,26.6955,-81.8138,1.73,0.16,1111122 
SCCF RECON,ioos:station:SCCF:18:1,2013-10-06T04:00:00Z,26.6955,-81.8138,1.709,0.16,1111122 
SCCF RECON,ioos:station:SCCF:18:1,2013-10-06T05:00:00Z,26.6955,-81.8138,1.77,0.16,1111122 
SCCF RECON,ioos:station:SCCF:18:1,2013-10-06T06:00:00Z,26.6955,-81.8138,1.86,0.16,1111122 
SCCF RECON,ioos:station:SCCF:18:1,2013-10-06T07:00:00Z,26.6955,-81.8138,1.93,0.16,1111122 
SCCF RECON,ioos:station:SCCF:18:1,2013-10-06T08:00:00Z,26.6955,-81.8138,1.99,0.16,1111122 
SCCF RECON,ioos:station:SCCF:18:1,2013-10-06T09:00:00Z,26.6955,-81.8138,2.03,0.16,1111122 
SCCF RECON,ioos:station:SCCF:18:1,2013-10-06T10:00:00Z,26.6955,-81.8138,2.03,0.16,1111122 
SCCF RECON,ioos:station:SCCF:18:1,2013-10-06T11:00:00Z,26.6955,-81.8138,1.96,0.16,1111122 
SCCF RECON,ioos:station:SCCF:18:1,2013-10-06T12:00:00Z,26.6955,-81.8138,1.9,0.16,1111122 
SCCF RECON,ioos:station:SCCF:18:1,2013-10-06T13:00:00Z,26.6955,-81.8138,1.85,0.16,1111122 
SCCF RECON,ioos:station:SCCF:18:1,2013-10-06T14:00:00Z,26.6955,-81.8138,1.8,0.16,1111122 
SCCF RECON,ioos:station:SCCF:18:1,2013-10-06T15:00:00Z,26.6955,-81.8138,1.75,0.16,1111122 
SCCF RECON,ioos:station:SCCF:18:1,2013-10-06T16:00:00Z,26.6955,-81.8138,1.71,0.16,1111122 
SCCF RECON,ioos:station:SCCF:18:1,2013-10-06T17:00:00Z,26.6955,-81.8138,1.69,0.16,1111122 
SCCF RECON,ioos:station:SCCF:18:1,2013-10-06T18:00:00Z,26.6955,-81.8138,1.76,0.16,1111122 
SCCF RECON,ioos:station:SCCF:18:1,2013-10-06T19:00:00Z,26.6955,-81.8138,1.86,0.16,1111122 
SCCF RECON,ioos:station:SCCF:18:1,2013-10-06T20:00:00Z,26.6955,-81.8138,1.9,0.16,1111122 
SCCF RECON,ioos:station:SCCF:18:1,2013-10-06T21:00:00Z,26.6955,-81.8138,1.96,0.16,1111122 
SCCF RECON,ioos:station:SCCF:18:1,2013-10-06T22:00:00Z,26.6955,-81.8138,2.0,0.16,1111122 
SCCF RECON,ioos:station:SCCF:18:1,2013-10-06T23:00:00Z,26.6955,-81.8138,2.011,0.17,1111122 
SCCF RECON,ioos:station:SCCF:18:1,2013-10-07T00:00:00Z,26.6955,-81.8138,1.96,0.16,1111122 
SCCF RECON,ioos:station:SCCF:18:1,2013-10-07T01:00:00Z,26.6955,-81.8138,1.89,0.16,1111122 
SCCF RECON,ioos:station:SCCF:18:1,2013-10-07T02:00:00Z,26.6955,-81.8138,1.85,0.16,1111122 
SCCF RECON,ioos:station:SCCF:18:1,2013-10-07T03:00:00Z,26.6955,-81.8138,1.8,0.16,1111122 
SCCF RECON,ioos:station:SCCF:18:1,2013-10-07T04:00:00Z,26.6955,-81.8138,1.75,0.16,1111122 
SCCF RECON,ioos:station:SCCF:18:1,2013-10-07T05:00:00Z,26.6955,-81.8138,1.74,0.16,1111122 
SCCF RECON,ioos:station:SCCF:18:1,2013-10-07T06:00:00Z,26.6955,-81.8138,1.83,0.16,1111122 
SCCF RECON,ioos:station:SCCF:18:1,2013-10-07T07:00:00Z,26.6955,-81.8138,1.92,0.16,1111122 
SCCF RECON,ioos:station:SCCF:18:1,2013-10-07T08:00:00Z,26.6955,-81.8138,1.98,0.16,1111122 
SCCF RECON,ioos:station:SCCF:18:1,2013-10-07T09:00:00Z,26.6955,-81.8138,2.03,0.16,1111122 
SCCF RECON,ioos:station:SCCF:18:1,2013-10-07T10:00:00Z,26.6955,-81.8138,2.06,0.17,1111122 
SCCF RECON,ioos:station:SCCF:18:1,2013-10-07T11:00:00Z,26.6955,-81.8138,2.04,0.16,1111122 
SCCF RECON,ioos:station:SCCF:18:1,2013-10-07T12:00:00Z,26.6955,-81.8138,1.97,0.16,1111122 
SCCF RECON,ioos:station:SCCF:18:1,2013-10-07T13:00:00Z,26.6955,-81.8138,1.91,0.16,1111122 
SCCF RECON,ioos:station:SCCF:18:1,2013-10-07T14:00:00Z,26.6955,-81.8138,1.87,0.16,1111122 
SCCF RECON,ioos:station:SCCF:18:1,2013-10-07T15:00:00Z,26.6955,-81.8138,1.84,0.16,1111122 
SCCF RECON,ioos:station:SCCF:18:1,2013-10-07T16:00:00Z,26.6955,-81.8138,1.82,0.16,1111122 
SCCF RECON,ioos:station:SCCF:18:1,2013-10-07T17:00:00Z,26.6955,-81.8138,1.829,0.16,1111122 
SCCF RECON,ioos:station:SCCF:18:1,2013-10-07T18:00:00Z,26.6955,-81.8138,1.79,0.16,1111122 
SCCF RECON,ioos:station:SCCF:18:1,2013-10-07T19:00:00Z,26.6955,-81.8138,1.89,0.16,1111122 
SCCF RECON,ioos:station:SCCF:18:1,2013-10-07T20:00:00Z,26.6955,-81.8138,1.946,0.16,1111122 
SCCF RECON,ioos:station:SCCF:18:1,2013-10-07T21:00:00Z,26.6955,-81.8138,2.01,0.17,1111122 
SCCF RECON,ioos:station:SCCF:18:1,2013-10-07T22:00:00Z,26.6955,-81.8138,2.06,0.17,1111122 
SCCF RECON,ioos:station:SCCF:18:1,2013-10-07T23:00:00Z,26.6955,-81.8138,2.1,0.17,1111122 
SCCF RECON,ioos:station:SCCF:18:1,2013-10-08T00:00:00Z,26.6955,-81.8138,2.08,0.17,1111122 
SCCF RECON,ioos:station:SCCF:18:1,2013-10-08T01:00:00Z,26.6955,-81.8138,2.03,0.16,1111122 
SCCF RECON,ioos:station:SCCF:18:1,2013-10-08T02:00:00Z,26.6955,-81.8138,1.97,0.16,1111122 
SCCF RECON,ioos:station:SCCF:18:1,2013-10-08T03:00:00Z,26.6955,-81.8138,1.92,0.16,1111122 
SCCF RECON,ioos:station:SCCF:18:1,2013-10-08T04:00:00Z,26.6955,-81.8138,1.88,0.16,1111122 
SCCF RECON,ioos:station:SCCF:18:1,2013-10-08T05:00:00Z,26.6955,-81.8138,1.84,0.16,1111122 
SCCF RECON,ioos:station:SCCF:18:1,2013-10-08T06:00:00Z,26.6955,-81.8138,1.84,0.15,1111122 
SCCF RECON,ioos:station:SCCF:18:1,2013-10-08T07:00:00Z,26.6955,-81.8138,1.93,0.16,1111122 
SCCF RECON,ioos:station:SCCF:18:1,2013-10-08T08:00:00Z,26.6955,-81.8138,2.0,0.16,1111122 
SCCF RECON,ioos:station:SCCF:18:1,2013-10-08T09:00:00Z,26.6955,-81.8138,2.06,0.16,1111122 
SCCF RECON,ioos:station:SCCF:18:1,2013-10-08T10:00:00Z,26.6955,-81.8138,2.1,0.16,1111122 
SCCF RECON,ioos:station:SCCF:18:1,2013-10-08T11:00:00Z,26.6955,-81.8138,2.1,0.17,1111122 
SCCF RECON,ioos:station:SCCF:18:1,2013-10-08T12:00:00Z,26.6955,-81.8138,2.032,0.16,1111122 
SCCF RECON,ioos:station:SCCF:18:1,2013-10-08T13:00:00Z,26.6955,-81.8138,1.98,0.16,1111122 
SCCF RECON,ioos:station:SCCF:18:1,2013-10-08T14:00:00Z,26.6955,-81.8138,1.93,0.16,1111122 
SCCF RECON,ioos:station:SCCF:18:1,2013-10-08T15:00:00Z,26.6955,-81.8138,1.88,0.16,1111122 
SCCF RECON,ioos:station:SCCF:18:1,2013-10-08T16:00:00Z,26.6955,-81.8138,1.82,0.16,1111122 
SCCF RECON,ioos:station:SCCF:18:1,2013-10-08T17:00:00Z,26.6955,-81.8138,1.75,0.16,1111122 
SCCF RECON,ioos:station:SCCF:18:1,2013-10-08T18:00:00Z,26.6955,-81.8138,1.7,0.16,1111122 
SCCF RECON,ioos:station:SCCF:18:1,2013-10-08T19:00:00Z,26.6955,-81.8138,1.68,0.17,1111122 
SCCF RECON,ioos:station:SCCF:18:1,2013-10-08T20:00:00Z,26.6955,-81.8138,1.703,0.17,1111122 
SCCF RECON,ioos:station:SCCF:18:1,2013-10-08T21:00:00Z,26.6955,-81.8138,1.77,0.18,1111122 
SCCF RECON,ioos:station:SCCF:18:1,2013-10-08T22:00:00Z,26.6955,-81.8138,1.83,0.17,1111122 
SCCF RECON,ioos:station:SCCF:18:1,2013-10-08T23:00:00Z,26.6955,-81.8138,1.87,0.17,1111122 
SCCF RECON,ioos:station:SCCF:18:1,2013-10-09T00:00:00Z,26.6955,-81.8138,1.89,0.17,1111122 
SCCF RECON,ioos:station:SCCF:18:1,2013-10-09T01:00:00Z,26.6955,-81.8138,1.87,0.19,1111122 
SCCF RECON,ioos:station:SCCF:18:1,2013-10-09T02:00:00Z,26.6955,-81.8138,1.82,0.17,1111122 
SCCF RECON,ioos:station:SCCF:18:1,2013-10-09T03:00:00Z,26.6955,-81.8138,1.77,0.17,1111122 
SCCF RECON,ioos:station:SCCF:18:1,2013-10-09T04:00:00Z,26.6955,-81.8138,1.73,0.17,1111122 
SCCF RECON,ioos:station:SCCF:18:1,2013-10-09T05:00:00Z,26.6955,-81.8138,1.7,0.17,1111122 
SCCF RECON,ioos:station:SCCF:18:1,2013-10-09T06:00:00Z,26.6955,-81.8138,1.69,0.17,1111122 
SCCF RECON,ioos:station:SCCF:18:1,2013-10-09T07:00:00Z,26.6955,-81.8138,1.74,0.17,1111122 
SCCF RECON,ioos:station:SCCF:18:1,2013-10-09T08:00:00Z,26.6955,-81.8138,1.81,0.17,1111122 
SCCF RECON,ioos:station:SCCF:18:1,2013-10-09T09:00:00Z,26.6955,-81.8138,1.88,0.17,1111122 
SCCF RECON,ioos:station:SCCF:18:1,2013-10-09T10:00:00Z,26.6955,-81.8138,1.93,0.17,1111122 
SCCF RECON,ioos:station:SCCF:18:1,2013-10-09T11:00:00Z,26.6955,-81.8138,1.96,0.17,1111122 
SCCF RECON,ioos:station:SCCF:18:1,2013-10-09T12:00:00Z,26.6955,-81.8138,1.94,0.17,1111122 
SCCF RECON,ioos:station:SCCF:18:1,2013-10-09T13:00:00Z,26.6955,-81.8138,1.87,0.16,1111122 
SCCF RECON,ioos:station:SCCF:18:1,2013-10-09T14:00:00Z,26.6955,-81.8138,1.826,0.18,1111122 
SCCF RECON,ioos:station:SCCF:18:1,2013-10-09T15:00:00Z,26.6955,-81.8138,1.76,0.17,1111122 
SCCF RECON,ioos:station:SCCF:18:1,2013-10-09T16:00:00Z,26.6955,-81.8138,1.71,0.17,1111122 
SCCF RECON,ioos:station:SCCF:18:1,2013-10-09T17:00:00Z,26.6955,-81.8138,1.65,0.17,1111122 
SCCF RECON,ioos:station:SCCF:18:1,2013-10-09T18:00:00Z,26.6955,-81.8138,1.59,0.17,1111122 
SCCF RECON,ioos:station:SCCF:18:1,2013-10-09T19:00:00Z,26.6955,-81.8138,1.54,0.17,1111122 
SCCF RECON,ioos:station:SCCF:18:1,2013-10-09T20:00:00Z,26.6955,-81.8138,1.53,0.17,1111122 
SCCF RECON,ioos:station:SCCF:18:1,2013-10-09T21:00:00Z,26.6955,-81.8138,1.582,0.17,1111122 
SCCF RECON,ioos:station:SCCF:18:1,2013-10-09T22:00:00Z,26.6955,-81.8138,1.64,0.17,1111122 
SCCF RECON,ioos:station:SCCF:18:1,2013-10-09T23:00:00Z,26.6955,-81.8138,1.7,0.17,1111122 
SCCF RECON,ioos:station:SCCF:18:1,2013-10-10T00:00:00Z,26.6955,-81.8138,1.74,0.17,1111122 
SCCF RECON,ioos:station:SCCF:18:1,2013-10-10T01:00:00Z,26.6955,-81.8138,1.78,0.17,1111122 
SCCF RECON,ioos:station:SCCF:18:1,2013-10-10T02:00:00Z,26.6955,-81.8138,1.79,0.17,1111122 
SCCF RECON,ioos:station:SCCF:18:1,2013-10-10T03:00:00Z,26.6955,-81.8138,1.75,0.17,1111122 
SCCF RECON,ioos:station:SCCF:18:1,2013-10-10T04:00:00Z,26.6955,-81.8138,1.69,0.17,1111122 
SCCF RECON,ioos:station:SCCF:18:1,2013-10-10T05:00:00Z,26.6955,-81.8138,1.66,0.17,1111122 
SCCF RECON,ioos:station:SCCF:18:1,2013-10-10T06:00:00Z,26.6955,-81.8138,1.63,0.17,1111122 
SCCF RECON,ioos:station:SCCF:18:1,2013-10-10T07:00:00Z,26.6955,-81.8138,1.64,0.17,1111122 
SCCF RECON,ioos:station:SCCF:18:1,2013-10-10T08:00:00Z,26.6955,-81.8138,1.699,0.17,1111122 
SCCF RECON,ioos:station:SCCF:18:1,2013-10-10T09:00:00Z,26.6955,-81.8138,1.77,0.17,1111122 
SCCF RECON,ioos:station:SCCF:18:1,2013-10-10T10:00:00Z,26.6955,-81.8138,1.83,0.17,1111122 
SCCF RECON,ioos:station:SCCF:18:1,2013-10-10T11:00:00Z,26.6955,-81.8138,1.887,0.17,1111122 
SCCF RECON,ioos:station:SCCF:18:1,2013-10-10T12:00:00Z,26.6955,-81.8138,1.92,0.17,1111122 
SCCF RECON,ioos:station:SCCF:18:1,2013-10-10T13:00:00Z,26.6955,-81.8138,1.9,0.18,1111122 
SCCF RECON,ioos:station:SCCF:18:1,2013-10-10T14:00:00Z,26.6955,-81.8138,1.837,0.16,1111122 
SCCF RECON,ioos:station:SCCF:18:1,2013-10-10T15:00:00Z,26.6955,-81.8138,1.78,0.18,1111122 
SCCF RECON,ioos:station:SCCF:18:1,2013-10-10T16:00:00Z,26.6955,-81.8138,1.73,0.17,1111122 
SCCF RECON,ioos:station:SCCF:18:1,2013-10-10T17:00:00Z,26.6955,-81.8138,1.66,0.17,1111122 
SCCF RECON,ioos:station:SCCF:18:1,2013-10-10T18:00:00Z,26.6955,-81.8138,1.619,0.17,1111122 
SCCF RECON,ioos:station:SCCF:18:1,2013-10-10T19:00:00Z,26.6955,-81.8138,1.57,0.17,1111122 
SCCF RECON,ioos:station:SCCF:18:1,2013-10-10T20:00:00Z,26.6955,-81.8138,1.52,0.17,1111122 
SCCF RECON,ioos:station:SCCF:18:1,2013-10-10T21:00:00Z,26.6955,-81.8138,1.48,0.17,1111122 
SCCF RECON,ioos:station:SCCF:18:1,2013-10-10T22:00:00Z,26.6955,-81.8138,1.53,0.17,1111122 
SCCF RECON,ioos:station:SCCF:18:1,2013-10-10T23:00:00Z,26.6955,-81.8138,1.58,0.17,1111122 
SCCF RECON,ioos:station:SCCF:18:1,2013-10-11T00:00:00Z,26.6955,-81.8138,1.65,0.18,1111122 
SCCF RECON,ioos:station:SCCF:18:1,2013-10-11T01:00:00Z,26.6955,-81.8138,1.7,0.18,1111122 
SCCF RECON,ioos:station:SCCF:18:1,2013-10-11T02:00:00Z,26.6955,-81.8138,1.74,0.18,1111122 
SCCF RECON,ioos:station:SCCF:18:1,2013-10-11T03:00:00Z,26.6955,-81.8138,1.75,0.17,1111122 
SCCF RECON,ioos:station:SCCF:18:1,2013-10-11T04:00:00Z,26.6955,-81.8138,1.73,0.17,1111122 
SCCF RECON,ioos:station:SCCF:18:1,2013-10-11T05:00:00Z,26.6955,-81.8138,1.71,0.17,1111122 
SCCF RECON,ioos:station:SCCF:18:1,2013-10-11T06:00:00Z,26.6955,-81.8138,1.67,0.17,1111122 
SCCF RECON,ioos:station:SCCF:18:1,2013-10-11T07:00:00Z,26.6955,-81.8138,1.64,0.17,1111122 
SCCF RECON,ioos:station:SCCF:18:1,2013-10-11T08:00:00Z,26.6955,-81.8138,1.64,0.17,1111122 
SCCF RECON,ioos:station:SCCF:18:1,2013-10-11T09:00:00Z,26.6955,-81.8138,1.69,0.17,1111122 
SCCF RECON,ioos:station:SCCF:18:1,2013-10-11T10:00:00Z,26.6955,-81.8138,1.78,0.17,1111122 
SCCF RECON,ioos:station:SCCF:18:1,2013-10-11T11:00:00Z,26.6955,-81.8138,1.84,0.17,1111122 
SCCF RECON,ioos:station:SCCF:18:1,2013-10-11T12:00:00Z,26.6955,-81.8138,1.9,0.17,1111122 
SCCF RECON,ioos:station:SCCF:18:1,2013-10-11T13:00:00Z,26.6955,-81.8138,1.93,0.17,1111122 
SCCF RECON,ioos:station:SCCF:18:1,2013-10-11T14:00:00Z,26.6955,-81.8138,1.93,0.17,1111122 
SCCF RECON,ioos:station:SCCF:18:1,2013-10-11T15:00:00Z,26.6955,-81.8138,1.88,0.17,1111122 
SCCF RECON,ioos:station:SCCF:18:1,2013-10-11T16:00:00Z,26.6955,-81.8138,1.82,0.17,1111122 
SCCF RECON,ioos:station:SCCF:18:1,2013-10-11T17:00:00Z,26.6955,-81.8138,1.75,0.17,1111122 
SCCF RECON,ioos:station:SCCF:18:1,2013-10-11T18:00:00Z,26.6955,-81.8138,1.69,0.17,1111122 
SCCF RECON,ioos:station:SCCF:18:1,2013-10-11T19:00:00Z,26.6955,-81.8138,1.64,0.17,1111122 
SCCF RECON,ioos:station:SCCF:18:1,2013-10-11T20:00:00Z,26.6955,-81.8138,1.59,0.17,1111122 
SCCF RECON,ioos:station:SCCF:18:1,2013-10-11T21:00:00Z,26.6955,-81.8138,1.546,0.17,1111122 
SCCF RECON,ioos:station:SCCF:18:1,2013-10-11T22:00:00Z,26.6955,-81.8138,1.51,0.17,1111122 